AMX198 MMGL-MMCL

Flight info

Callsign AMX198
Flight time 0h 57m
Altitude 34000
Route SEDEM1B SEDEM UJ3 MZT UJ7 MELBO MELBO1A
Aircraft B38M/M-SDE1FGHILORVWXY/HB1

Departure

Time 2026-05-06 07:48
Airport Guadalajara International Airport (MMGL)

Arrival

Time 2026-05-06 08:45
Airport Bachigualato Federal International Airport (MMCL)
Time Latitude Longitude Altitude Speed Heading
2026-05-06 07:23 20.52336 -103.30178 5031 ft 0 kts 199°
2026-05-06 07:38 20.52337 -103.30178 5031 ft 1 kts 199°
2026-05-06 07:38 20.52352 -103.30172 5030 ft 3 kts 199°
2026-05-06 07:38 20.52368 -103.30166 5028 ft 3 kts 196°
2026-05-06 07:39 20.52385 -103.30165 5027 ft 3 kts 158°
2026-05-06 07:39 20.52398 -103.30176 5027 ft 3 kts 115°
2026-05-06 07:39 20.52403 -103.30191 5029 ft 1 kts 107°
2026-05-06 07:39 20.52405 -103.30196 5030 ft 0 kts 107°
2026-05-06 07:42 20.52404 -103.30193 5029 ft 1 kts 107°
2026-05-06 07:42 20.52398 -103.30174 5028 ft 4 kts 107°
2026-05-06 07:43 20.52388 -103.30138 5031 ft 6 kts 107°
2026-05-06 07:43 20.52372 -103.30087 5031 ft 8 kts 109°
2026-05-06 07:43 20.52351 -103.30021 5028 ft 10 kts 109°
2026-05-06 07:43 20.52325 -103.29941 5031 ft 12 kts 110°
2026-05-06 07:44 20.52298 -103.29882 5030 ft 7 kts 117°
2026-05-06 07:44 20.52273 -103.29830 5031 ft 9 kts 117°
2026-05-06 07:44 20.52241 -103.29766 5025 ft 11 kts 119°
2026-05-06 07:44 20.52203 -103.29689 5029 ft 13 kts 109°
2026-05-06 07:45 20.52173 -103.29594 5029 ft 15 kts 109°
2026-05-06 07:45 20.52136 -103.29487 5028 ft 16 kts 123°
2026-05-06 07:45 20.52035 -103.29481 5032 ft 16 kts 203°
2026-05-06 07:45 20.51927 -103.29530 5032 ft 18 kts 202°
2026-05-06 07:46 20.51826 -103.29588 5031 ft 13 kts 237°
2026-05-06 07:46 20.51825 -103.29625 5033 ft 1 kts 292°
2026-05-06 07:46 20.51831 -103.29640 5032 ft 4 kts 294°
2026-05-06 07:46 20.51851 -103.29687 5032 ft 15 kts 294°
2026-05-06 07:47 20.51984 -103.30006 5028 ft 77 kts 294°
2026-05-06 07:47 20.52279 -103.30706 5030 ft 127 kts 294°
2026-05-06 07:47 20.52696 -103.31705 5037 ft 165 kts 293°
2026-05-06 07:47 20.53181 -103.32858 5502 ft 170 kts 292°
2026-05-06 07:48 20.53654 -103.34075 5990 ft 180 kts 292°
2026-05-06 07:48 20.54129 -103.35288 6435 ft 176 kts 292°
2026-05-06 07:48 20.54630 -103.36503 6963 ft 187 kts 293°
2026-05-06 07:48 20.55182 -103.37847 7453 ft 204 kts 292°
2026-05-06 07:49 20.55767 -103.39276 8282 ft 218 kts 292°
2026-05-06 07:49 20.56400 -103.40820 8771 ft 238 kts 292°
2026-05-06 07:49 20.57052 -103.42442 9663 ft 237 kts 291°
2026-05-06 07:49 20.57692 -103.44076 10471 ft 242 kts 290°
2026-05-06 07:50 20.58351 -103.45762 11227 ft 249 kts 290°
2026-05-06 07:50 20.59121 -103.47437 12021 ft 258 kts 303°
2026-05-06 07:50 20.60422 -103.48791 12931 ft 267 kts 324°
2026-05-06 07:50 20.62066 -103.49776 13753 ft 276 kts 329°
2026-05-06 07:51 20.63616 -103.51015 14482 ft 282 kts 313°
2026-05-06 07:51 20.65097 -103.52476 15044 ft 299 kts 315°
2026-05-06 07:51 20.66699 -103.54006 15503 ft 319 kts 316°
2026-05-06 07:51 20.68419 -103.55629 15965 ft 340 kts 316°
2026-05-06 07:52 20.70235 -103.57330 16595 ft 354 kts 316°
2026-05-06 07:52 20.72115 -103.59086 17382 ft 362 kts 316°
2026-05-06 07:52 20.74012 -103.60857 18251 ft 364 kts 316°
2026-05-06 07:52 20.75931 -103.62648 18909 ft 369 kts 316°
2026-05-06 07:53 20.77878 -103.64465 19577 ft 373 kts 315°
2026-05-06 07:53 20.79843 -103.66299 20253 ft 377 kts 315°
2026-05-06 07:53 20.81831 -103.68157 20913 ft 382 kts 315°
2026-05-06 07:53 20.83845 -103.70038 21606 ft 386 kts 315°
2026-05-06 07:54 20.85878 -103.71939 22279 ft 390 kts 315°
2026-05-06 07:54 20.87937 -103.73864 22890 ft 395 kts 315°
2026-05-06 07:54 20.90018 -103.75810 23521 ft 400 kts 315°
2026-05-06 07:54 20.92118 -103.77775 24059 ft 403 kts 315°
2026-05-06 07:55 20.94231 -103.79753 24657 ft 404 kts 315°
2026-05-06 07:55 20.96355 -103.81742 25210 ft 407 kts 315°
2026-05-06 07:55 20.98496 -103.83747 25773 ft 410 kts 315°
2026-05-06 07:55 21.00645 -103.85762 26322 ft 412 kts 315°
2026-05-06 07:56 21.02808 -103.87790 26829 ft 415 kts 314°
2026-05-06 07:56 21.04989 -103.89834 27321 ft 418 kts 315°
2026-05-06 07:56 21.07178 -103.91888 27795 ft 420 kts 315°
2026-05-06 07:56 21.09376 -103.93952 28301 ft 421 kts 315°
2026-05-06 07:57 21.11477 -103.96138 28791 ft 422 kts 309°
2026-05-06 07:57 21.13519 -103.98414 29293 ft 425 kts 310°
2026-05-06 07:57 21.15586 -104.00691 29810 ft 428 kts 310°
2026-05-06 07:57 21.17675 -104.02977 30243 ft 430 kts 310°
2026-05-06 07:58 21.19775 -104.05271 30654 ft 432 kts 310°
2026-05-06 07:58 21.21885 -104.07581 31085 ft 434 kts 310°
2026-05-06 07:58 21.23987 -104.09915 31509 ft 436 kts 310°
2026-05-06 07:58 21.26068 -104.12224 31939 ft 438 kts 310°
2026-05-06 07:59 21.28217 -104.14608 32367 ft 440 kts 310°
2026-05-06 07:59 21.30317 -104.16939 32713 ft 443 kts 310°
2026-05-06 07:59 21.32460 -104.19317 33109 ft 443 kts 309°
2026-05-06 07:59 21.34603 -104.21695 33549 ft 442 kts 310°
2026-05-06 08:00 21.36738 -104.24064 33915 ft 442 kts 309°
2026-05-06 08:00 21.38781 -104.26333 33960 ft 438 kts 309°
2026-05-06 08:00 21.42310 -104.30254 33969 ft 435 kts 309°
2026-05-06 08:01 21.46523 -104.34940 33966 ft 441 kts 309°
2026-05-06 08:01 21.50831 -104.39734 33954 ft 456 kts 310°
2026-05-06 08:02 21.55269 -104.44678 33980 ft 461 kts 309°
2026-05-06 08:02 21.59725 -104.49646 33976 ft 461 kts 309°
2026-05-06 08:03 21.64181 -104.54620 33974 ft 461 kts 309°
2026-05-06 08:03 21.68631 -104.59591 33978 ft 461 kts 309°
2026-05-06 08:04 21.73074 -104.64558 33974 ft 461 kts 309°
2026-05-06 08:04 21.77517 -104.69532 33976 ft 461 kts 309°
2026-05-06 08:05 21.81963 -104.74512 33988 ft 461 kts 309°
2026-05-06 08:05 21.86409 -104.79497 33988 ft 461 kts 309°
2026-05-06 08:06 21.90849 -104.84482 33973 ft 461 kts 309°
2026-05-06 08:06 21.95290 -104.89473 33971 ft 462 kts 309°
2026-05-06 08:07 21.99730 -104.94468 33978 ft 462 kts 309°
2026-05-06 08:07 22.04173 -104.99470 33965 ft 461 kts 309°
2026-05-06 08:08 22.08603 -105.04463 33963 ft 461 kts 309°
2026-05-06 08:08 22.13035 -105.09464 33969 ft 461 kts 309°
2026-05-06 08:09 22.17462 -105.14463 33962 ft 461 kts 308°
2026-05-06 08:09 22.21888 -105.19466 33958 ft 461 kts 309°
2026-05-06 08:10 22.26310 -105.24469 33958 ft 460 kts 308°
2026-05-06 08:10 22.30729 -105.29475 33959 ft 460 kts 308°
2026-05-06 08:11 22.35138 -105.34473 33952 ft 460 kts 308°
2026-05-06 08:11 22.39549 -105.39479 33959 ft 459 kts 308°
2026-05-06 08:12 22.43924 -105.44448 33953 ft 459 kts 308°
2026-05-06 08:12 22.48327 -105.49455 33945 ft 459 kts 308°
2026-05-06 08:13 22.52730 -105.54465 33941 ft 459 kts 308°
2026-05-06 08:13 22.57129 -105.59478 33947 ft 460 kts 308°
2026-05-06 08:14 22.61527 -105.64494 33947 ft 460 kts 308°
2026-05-06 08:14 22.65929 -105.69519 33951 ft 460 kts 308°
2026-05-06 08:15 22.70329 -105.74547 33938 ft 460 kts 308°
2026-05-06 08:15 22.74730 -105.79581 33941 ft 460 kts 308°
2026-05-06 08:16 22.79132 -105.84621 33942 ft 460 kts 308°
2026-05-06 08:16 22.83527 -105.89659 33941 ft 460 kts 308°
2026-05-06 08:17 22.87925 -105.94705 33948 ft 460 kts 308°
2026-05-06 08:17 22.92314 -105.99745 33943 ft 460 kts 308°
2026-05-06 08:18 22.96707 -106.04795 33947 ft 460 kts 308°
2026-05-06 08:18 23.01099 -106.09850 33954 ft 460 kts 308°
2026-05-06 08:19 23.05493 -106.14911 33959 ft 460 kts 308°
2026-05-06 08:19 23.09882 -106.19972 33962 ft 460 kts 307°
2026-05-06 08:20 23.14272 -106.25039 33964 ft 460 kts 307°
2026-05-06 08:20 23.19290 -106.29454 33967 ft 470 kts 320°
2026-05-06 08:21 23.24625 -106.33444 33963 ft 451 kts 319°
2026-05-06 08:21 23.29731 -106.37239 33960 ft 442 kts 319°
2026-05-06 08:22 23.32241 -106.39102 33689 ft 433 kts 319°
2026-05-06 08:22 23.34729 -106.40951 33033 ft 433 kts 319°
2026-05-06 08:22 23.37210 -106.42796 32423 ft 432 kts 319°
2026-05-06 08:22 23.39684 -106.44636 31913 ft 429 kts 319°
2026-05-06 08:23 23.42143 -106.46465 31388 ft 427 kts 319°
2026-05-06 08:23 23.44585 -106.48283 30863 ft 424 kts 319°
2026-05-06 08:23 23.47019 -106.50095 30341 ft 423 kts 318°
2026-05-06 08:23 23.49443 -106.51901 29783 ft 421 kts 318°
2026-05-06 08:24 23.51857 -106.53700 29215 ft 420 kts 319°
2026-05-06 08:24 23.54260 -106.55491 28705 ft 416 kts 319°
2026-05-06 08:24 23.56639 -106.57266 28229 ft 413 kts 319°
2026-05-06 08:24 23.59011 -106.59038 27685 ft 412 kts 319°
2026-05-06 08:25 23.61363 -106.60794 27254 ft 409 kts 319°
2026-05-06 08:25 23.63702 -106.62543 26812 ft 406 kts 319°
2026-05-06 08:25 23.66023 -106.64278 26362 ft 404 kts 319°
2026-05-06 08:25 23.68307 -106.65987 25912 ft 402 kts 319°
2026-05-06 08:26 23.70611 -106.67711 25461 ft 401 kts 319°
2026-05-06 08:26 23.72909 -106.69431 25024 ft 400 kts 319°
2026-05-06 08:26 23.75204 -106.71151 24587 ft 399 kts 319°
2026-05-06 08:26 23.77492 -106.72865 24152 ft 399 kts 319°
2026-05-06 08:27 23.79777 -106.74578 23722 ft 399 kts 319°
2026-05-06 08:27 23.82063 -106.76292 23246 ft 398 kts 319°
2026-05-06 08:27 23.84346 -106.78005 22773 ft 397 kts 319°
2026-05-06 08:27 23.86614 -106.79707 22339 ft 394 kts 319°
2026-05-06 08:28 23.88862 -106.81396 21923 ft 391 kts 319°
2026-05-06 08:28 23.91093 -106.83072 21512 ft 388 kts 319°
2026-05-06 08:28 23.93311 -106.84739 21108 ft 385 kts 319°
2026-05-06 08:28 23.95509 -106.86392 20694 ft 383 kts 319°
2026-05-06 08:29 23.97700 -106.88040 20217 ft 382 kts 320°
2026-05-06 08:29 23.99882 -106.89682 19830 ft 379 kts 319°
2026-05-06 08:29 24.02050 -106.91314 19449 ft 377 kts 320°
2026-05-06 08:29 24.04326 -106.92770 18834 ft 388 kts 332°
2026-05-06 08:30 24.06897 -106.93779 18127 ft 395 kts 335°
2026-05-06 08:30 24.09453 -106.94806 17349 ft 387 kts 335°
2026-05-06 08:30 24.11953 -106.95828 16625 ft 380 kts 334°
2026-05-06 08:30 24.14403 -106.96841 15926 ft 373 kts 334°
2026-05-06 08:31 24.16812 -106.97841 15248 ft 367 kts 335°
2026-05-06 08:31 24.19173 -106.98823 14658 ft 358 kts 335°
2026-05-06 08:31 24.21461 -106.99776 14226 ft 346 kts 335°
2026-05-06 08:31 24.23670 -107.00695 13850 ft 334 kts 335°
2026-05-06 08:32 24.25813 -107.01588 13481 ft 328 kts 335°
2026-05-06 08:32 24.27937 -107.02474 13110 ft 326 kts 335°
2026-05-06 08:32 24.30045 -107.03354 12763 ft 324 kts 335°
2026-05-06 08:32 24.32144 -107.04231 12412 ft 321 kts 335°
2026-05-06 08:33 24.34222 -107.05098 12084 ft 318 kts 335°
2026-05-06 08:33 24.36285 -107.05960 11742 ft 316 kts 335°
2026-05-06 08:33 24.38330 -107.06814 11410 ft 314 kts 335°
2026-05-06 08:33 24.40362 -107.07663 11083 ft 311 kts 335°
2026-05-06 08:34 24.42378 -107.08507 10747 ft 309 kts 336°
2026-05-06 08:34 24.46337 -107.10163 10236 ft 300 kts 336°
2026-05-06 08:34 24.48252 -107.10964 10090 ft 292 kts 336°
2026-05-06 08:35 24.50091 -107.11734 9822 ft 290 kts 336°
2026-05-06 08:35 24.51970 -107.12521 9494 ft 289 kts 336°
2026-05-06 08:35 24.53844 -107.13306 9153 ft 288 kts 336°
2026-05-06 08:35 24.55708 -107.14088 8839 ft 286 kts 336°
2026-05-06 08:36 24.57561 -107.14864 8522 ft 284 kts 336°
2026-05-06 08:36 24.59404 -107.15637 8217 ft 283 kts 336°
2026-05-06 08:36 24.61236 -107.16406 7914 ft 281 kts 337°
2026-05-06 08:36 24.63061 -107.17172 7611 ft 280 kts 337°
2026-05-06 08:37 24.64883 -107.17936 7299 ft 280 kts 337°
2026-05-06 08:37 24.66688 -107.18694 7023 ft 273 kts 337°
2026-05-06 08:37 24.68429 -107.19426 6737 ft 263 kts 337°
2026-05-06 08:37 24.70122 -107.20137 6441 ft 259 kts 337°
2026-05-06 08:38 24.71795 -107.20840 6137 ft 257 kts 338°
2026-05-06 08:38 24.73461 -107.21540 5839 ft 255 kts 338°
2026-05-06 08:38 24.75110 -107.22234 5552 ft 253 kts 338°
2026-05-06 08:38 24.76754 -107.22926 5265 ft 252 kts 338°
2026-05-06 08:39 24.78383 -107.23611 5006 ft 250 kts 339°
2026-05-06 08:39 24.79988 -107.24287 4733 ft 243 kts 339°
2026-05-06 08:39 24.81543 -107.24942 4463 ft 235 kts 339°
2026-05-06 08:39 24.83038 -107.25573 4263 ft 225 kts 339°
2026-05-06 08:40 24.84495 -107.26187 4154 ft 223 kts 339°
2026-05-06 08:40 24.85872 -107.26942 3969 ft 222 kts 318°
2026-05-06 08:40 24.86615 -107.28374 3679 ft 214 kts 282°
2026-05-06 08:40 24.86627 -107.29972 3440 ft 207 kts 257°
2026-05-06 08:41 24.86231 -107.31487 3273 ft 205 kts 253°
2026-05-06 08:41 24.85850 -107.32975 3106 ft 205 kts 254°
2026-05-06 08:41 24.85470 -107.34490 2827 ft 205 kts 255°
2026-05-06 08:41 24.85097 -107.36004 2530 ft 204 kts 255°
2026-05-06 08:42 24.84724 -107.37526 2356 ft 202 kts 255°
2026-05-06 08:42 24.84362 -107.39010 2200 ft 198 kts 255°
2026-05-06 08:42 24.84013 -107.40448 1979 ft 192 kts 256°
2026-05-06 08:42 24.83647 -107.41862 1673 ft 192 kts 249°
2026-05-06 08:43 24.82815 -107.42938 1346 ft 183 kts 216°
2026-05-06 08:43 24.81851 -107.43682 1190 ft 157 kts 215°
2026-05-06 08:43 24.80988 -107.44312 1003 ft 144 kts 213°
2026-05-06 08:43 24.80154 -107.44907 823 ft 142 kts 213°
2026-05-06 08:44 24.79327 -107.45497 645 ft 141 kts 213°
2026-05-06 08:44 24.78506 -107.46083 464 ft 140 kts 212°
2026-05-06 08:44 24.77689 -107.46667 266 ft 140 kts 213°
2026-05-06 08:44 24.76883 -107.47236 112 ft 132 kts 213°
2026-05-06 08:45 24.76261 -107.47686 113 ft 73 kts 213°
2026-05-06 08:45 24.75985 -107.47884 112 ft 30 kts 212°
2026-05-06 08:45 24.75794 -107.48016 112 ft 34 kts 212°
2026-05-06 08:45 24.75681 -107.48060 111 ft 16 kts 186°
2026-05-06 08:46 24.75635 -107.48104 112 ft 6 kts 296°
2026-05-06 08:46 24.75671 -107.48109 109 ft 7 kts 30°
2026-05-06 08:46 24.75737 -107.48063 109 ft 15 kts 33°
2026-05-06 08:46 24.75853 -107.47980 111 ft 24 kts 33°
2026-05-06 08:47 24.75950 -107.47911 112 ft 26 kts 33°
2026-05-06 08:47 24.76130 -107.47782 110 ft 24 kts 33°
2026-05-06 08:47 24.76280 -107.47674 113 ft 27 kts 32°
2026-05-06 08:47 24.76364 -107.47614 114 ft 20 kts 33°
2026-05-06 08:48 24.76492 -107.47522 113 ft 24 kts 33°
2026-05-06 08:48 24.76614 -107.47435 111 ft 20 kts 42°
2026-05-06 08:48 24.76638 -107.47296 111 ft 12 kts 99°
2026-05-06 08:48 24.76634 -107.47192 109 ft 15 kts 70°
2026-05-06 08:49 24.76718 -107.47119 112 ft 6 kts 32°
2026-05-06 08:49 24.76738 -107.47082 112 ft 5 kts 99°
2026-05-06 08:49 24.76723 -107.47057 113 ft 5 kts 124°
2026-05-06 08:49 24.76718 -107.47050 114 ft 0 kts 121°